Location: Sternwarte Stuttgart
(48.7824°N, 9.1965°E)
Time: 13:54:55
(UTC+00:00)

ISS - Visible Passes

Search period start: 22 October 2019 00:00
Search period end: 01 November 2019 00:00
Orbit: 411 x 421 km, 51.6° (Epoch: 22 October)

Date Brightness Start Highest point End Pass type
(mag) Time Alt. Az. Time Alt. Az. Time Alt. Az.
24 Oct -0.7 04:49:56 10° SSE 04:51:43 14° SE 04:53:31 10° ESE visible
26 Oct -1.9 04:47:55 10° SSW 04:50:54 29° SE 04:53:53 10° E visible
27 Oct -1.4 04:00:46 14° S 04:02:26 20° SE 04:04:57 10° E visible
28 Oct -0.7 03:14:38 12° ESE 03:14:38 12° ESE 03:15:36 10° ESE visible
28 Oct -3.3 04:47:33 15° SW 04:50:12 61° SSE 04:53:33 10° ENE visible
29 Oct -2.8 04:01:15 39° SSE 04:01:38 41° SSE 04:04:50 10° ENE visible
30 Oct -0.9 03:14:50 18° E 03:14:50 18° E 03:16:01 10° E visible
30 Oct -3.8 04:47:44 24° W 04:49:37 77° NNW 04:53:00 10° ENE visible
31 Oct -3.6 04:01:14 71° E 04:01:14 71° E 04:04:19 10° ENE visible
